FW6820 Weather Reports


Display with metric or nautical units.
time (UTC)temp
F
wind
direction
speed
MPH
gust
MPH
rain 1hr
in
rain 24hr
in
rain mn
in
humidity
%
barometer
mb
20260510174536 88 89 2.0 9.0 0.00 0.02 0.00 75 1011.7
20260510173040 86 137 7.0 14.0 0.00 0.02 0.00 76 1011.7
20260510171557 86 116 3.0 11.0 0.00 0.02 0.00 79 1011.9
20260510170041 85 123 7.0 11.0 0.00 0.02 0.00 78 1011.9
20260510164538 85 126 3.0 9.0 0.00 0.04 0.00 79 1011.5
20260510163035 84 146 7.0 13.0 0.00 0.04 0.00 79 1011.5
20260510161541 85 125 4.0 13.0 0.00 0.04 0.00 78 1011.5
20260510160047 85 29 2.0 8.0 0.00 0.04 0.00 79 1011.3
20260510154558 84 78 2.0 8.0 0.00 0.06 0.00 82 1011.4
20260510153047 83 90 2.0 7.0 0.00 0.06 0.00 84 1011.6
20260510151543 81 90 4.0 10.0 0.00 0.06 0.00 86 1011.4
20260510150051 80 105 3.0 7.0 0.00 0.06 0.00 88 1011.4
20260510144557 79 107 3.0 8.0 0.00 0.08 0.00 90 1011.5
20260510143039 79 108 1.0 4.0 0.00 0.08 0.00 91 1011.5
20260510141541 77 96 3.0 7.0 0.00 0.08 0.00 92 1011.5
20260510140035 77 0 3.0 7.0 0.00 0.08 0.00 93 1011.3
20260510134548 76 76 2.0 9.0 0.00 0.09 0.00 93 1011.3
20260510133041 76 52 3.0 8.0 0.00 0.09 0.00 93 1011.2
20260510131541 76 65 1.0 7.0 0.00 0.09 0.00 93 1011.1
20260510130039 75 40 1.0 7.0 0.00 0.09 0.00 93 1011.0
20260510124546 75 59 2.0 5.0 0.00 0.10 0.00 92 1010.7
20260510123041 75 87 2.0 6.0 0.00 0.10 0.00 92 1010.8
20260510121541 75 0 1.0 4.0 0.00 0.10 0.00 92 1010.7
20260510120038 75 0 0.0 4.0 0.00 0.10 0.00 92 1010.3
20260510114533 75 74 1.0 5.0 0.00 0.12 0.00 92 1010.0
20260510113043 75 67 2.0 5.0 0.00 0.12 0.00 92 1009.8
20260510111546 75 66 3.0 5.0 0.00 0.12 0.00 91 1009.9
20260510110042 76 74 1.0 3.0 0.00 0.12 0.00 91 1009.8
20260510104552 76 0 0.0 4.0 0.00 0.12 0.00 91 1009.8
20260510103039 76 144 0.0 3.0 0.00 0.12 0.00 91 1009.8
20260510101539 76 176 0.0 2.0 0.00 0.12 0.00 91 1009.7
20260510100050 76 176 1.0 4.0 0.00 0.12 0.00 91 1009.6
20260510094539 76 150 3.0 7.0 0.00 0.12 0.00 91 1009.8
20260510093046 76 147 2.0 4.0 0.00 0.12 0.00 91 1009.8
20260510091539 76 134 3.0 6.0 0.00 0.12 0.00 91 1009.6
20260510090044 76 127 3.0 7.0 0.00 0.12 0.00 91 1009.7
20260510084557 76 127 2.0 7.0 0.00 0.12 0.00 91 1009.8
20260510083056 75 118 1.0 4.0 0.00 0.12 0.00 91 1009.9
20260510081547 76 117 1.0 4.0 0.00 0.12 0.00 91 1010.3
20260510080037 76 140 3.0 7.0 0.00 0.12 0.00 91 1010.6
20260510074553 76 121 3.0 7.0 0.00 0.12 0.00 91 1010.9
20260510073049 75 90 0.0 3.0 0.00 0.12 0.00 90 1010.8
20260510071540 76 134 1.0 4.0 0.00 0.12 0.00 90 1010.8
20260510070042 76 0 1.0 4.0 0.00 0.12 0.00 90 1010.6
20260510064536 76 133 4.0 9.0 0.00 0.12 0.00 90 1010.3
20260510063040 76 136 3.0 9.0 0.00 0.12 0.00 89 1010.4
20260510061554 76 131 4.0 9.0 0.00 0.12 0.00 89 1010.6
20260510060044 77 126 3.0 9.0 0.00 0.12 0.00 88 1010.7
20260510054540 77 138 3.0 8.0 0.00 0.12 0.00 88 1010.8
20260510053041 77 126 4.0 10.0 0.00 0.12 0.00 88 1010.8
20260510051544 77 111 2.0 9.0 0.00 0.12 0.00 87 1010.9
20260510050045 77 123 2.0 9.0 0.00 0.12 0.00 87 1010.8
20260510044542 77 123 1.0 4.0 0.00 0.12 0.12 86 1010.8
20260510043048 77 0 0.0 2.0 0.00 0.12 0.12 85 1010.8
20260510041544 78 0 0.0 3.0 0.00 0.12 0.12 85 1010.9
20260510034547 78 99 1.0 3.0 0.00 0.12 0.12 83 1010.6
20260510033041 79 94 2.0 6.0 0.00 0.12 0.12 82 1010.4
20260510031555 79 93 2.0 6.0 0.00 0.12 0.12 81 1010.2
20260510030044 79 92 2.0 7.0 0.00 0.12 0.12 80 1010.0
20260510024536 80 71 2.0 7.0 0.00 0.12 0.12 78 1009.7
20260510023044 80 96 2.0 8.0 0.00 0.12 0.12 77 1009.4
20260510021540 81 96 2.0 7.0 0.00 0.12 0.12 76 1009.2
20260510020038 81 94 2.0 6.0 0.00 0.12 0.12 76 1009.1
20260510014537 81 86 3.0 8.0 0.00 0.12 0.12 75 1008.9
20260510013038 81 90 2.0 8.0 0.00 0.12 0.12 75 1008.7
20260510011541 82 89 2.0 10.0 0.00 0.12 0.12 74 1008.6
20260510010041 82 102 5.0 10.0 0.00 0.12 0.12 73 1008.4
20260510004539 83 65 5.0 11.0 0.00 0.12 0.12 73 1008.2
20260510003040 83 113 3.0 9.0 0.00 0.12 0.12 72 1008.0
20260510001535 84 61 3.0 9.0 0.00 0.12 0.12 71 1007.9
20260510000043 84 101 3.0 9.0 0.00 0.12 0.12 71 1007.8
20260509234540 84 103 3.0 8.0 0.00 0.12 0.12 71 1007.8
20260509233040 85 96 5.0 10.0 0.00 0.12 0.12 71 1007.8
20260509231543 85 111 3.0 11.0 0.00 0.12 0.12 71 1007.6
20260509230037 87 51 8.0 15.0 0.00 0.12 0.12 68 1007.5
20260509224539 88 42 3.0 13.0 0.00 0.12 0.12 68 1007.5
20260509223042 89 67 3.0 13.0 0.00 0.12 0.12 66 1007.5
20260509221538 89 63 6.0 13.0 0.00 0.12 0.12 66 1007.6
20260509220039 90 64 6.0 12.0 0.00 0.12 0.12 65 1007.6
20260509214540 90 30 4.0 9.0 0.00 0.12 0.12 64 1007.6
20260509213039 91 51 4.0 9.0 0.00 0.12 0.12 65 1007.6
20260509211537 90 12 3.0 10.0 0.00 0.12 0.12 65 1007.7
20260509210042 92 29 3.0 8.0 0.00 0.12 0.12 64 1007.9
20260509204546 91 74 1.0 5.0 0.00 0.12 0.12 64 1007.8
20260509203040 91 20 1.0 6.0 0.01 0.12 0.12 65 1007.8
20260509201540 89 205 0.0 4.0 0.01 0.12 0.12 66 1008.1
20260509200043 88 260 3.0 7.0 0.01 0.12 0.12 67 1008.3
20260509194540 88 289 2.0 5.0 0.01 0.12 0.12 69 1008.4
20260509193041 88 232 2.0 7.0 0.00 0.11 0.11 68 1008.8
20260509191542 88 257 1.0 7.0 0.00 0.11 0.11 68 1009.0
20260509190047 87 230 2.0 7.0 0.00 0.11 0.11 69 1009.1
20260509184545 86 207 1.0 7.0 0.00 0.11 0.11 69 1009.3
20260509183042 86 150 3.0 9.0 0.00 0.11 0.11 68 1009.6
20260509181546 85 0 2.0 13.0 0.01 0.11 0.11 70 1009.9
20260509180041 85 0 4.0 10.0 0.01 0.11 0.11 69 1009.7